Location: Fasanenhof
(48.7107°N, 9.1590°E)
Time: 00:13:58
(UTC+00:00)

ISS - Pass Details

Date: 27 February 2019
Orbit: 406 x 411 km, 51.6° (Epoch: 19 March)

Event Time Altitude Azimuth Distance (km) Brightness Sun altitude
Exits shadow 05:18:34 - 238° (WSW) 1,530 -1.4 -9.2°
Reaches altitude 10° 05:18:43 10° 238° (WSW) 1,462 -1.5 -9.2°
Maximum altitude 05:21:59 69° 155° (SSE) 438 -3.6 -8.7°
Drops below altitude 10° 05:25:16 10° 71° (ENE) 1,470 0.3 -8.1°
Sets 05:27:21 0° 69° (ENE) 2,334 1.4 -7.8°
